Location: *
(34.6780°N, 135.8310°E)
Time: 06:08:18
(UTC+00:00)

Cosmos 921 Rocket - Pass Details

Date: 18 October 2019
Orbit: 572 x 631 km, 75.8° (Epoch: 14 November)

Event Time Altitude Azimuth Distance (km) Brightness Sun altitude
Exits shadow 19:16:03 31° 351° (N) 1,039 4.1 -23.1°
Maximum altitude 19:18:02 81° 75° (ENE) 593 2.9 -22.7°
Drops below altitude 10° 19:22:13 10° 163° (SSE) 1,880 5.7 -21.8°
Sets 19:24:24 0° 164° (SSE) 2,769 6.6 -21.4°
